When you browse on this site, cookies collect data to enhance your experience and personalize the content and advertising you see.
Visit our Privacy Policy to learn more. By continuing to use the site, you agree to this use of cookies and data.
  • In Portugal
  • List of Countries
  • For 7 days
  • Water Temperature
  • Satellite Maps
  • Weather Map
  • Weather Widgets
  • user-avatar
    Login

    Hourly Weather Irbid

    Today, 24 March, Sunday

    Time Temperature Precipitation Wind Pressure Humidity
    00:00 +12°C° 0 mm 0 mps 704 mmHg 86%
    01:00 +11°C° 0 mm 0 mps 704 mmHg 87%
    02:00 +11°C° 0 mm 0 mps 703 mmHg 84%
    03:00 +11°C° 0.1 mm 0 mps 703 mmHg 83%
    04:00 +12°C° 0.1 mm 1 mps 703 mmHg 82%
    05:00 +12°C° 0.1 mm 1 mps 703 mmHg 81%
    06:00 +13°C° 0.3 mm 1 mps 703 mmHg 76%
    07:00 +13°C° 0.3 mm 1 mps 703 mmHg 71%
    08:00 +14°C° 0 mm 1 mps 702 mmHg 65%
    09:00 +14°C° 0.5 mm 2 mps 702 mmHg 64%
    10:00 +14°C° 0.5 mm 2 mps 702 mmHg 62%
    11:00 +12°C° 0.5 mm 3 mps 702 mmHg 60%
    12:00 +14°C° 0.1 mm 4 mps 702 mmHg 56%
    13:00 +15°C° 0.1 mm 5 mps 702 mmHg 52%
    14:00 +16°C° 0.1 mm 6 mps 702 mmHg 48%
    15:00 +15°C° 0 mm 7 mps 702 mmHg 51%
    16:00 +15°C° 0 mm 7 mps 702 mmHg 54%
    17:00 +14°C° 0 mm 7 mps 702 mmHg 56%
    18:00 +11°C° 0 mm 6 mps 702 mmHg 64%
    19:00 +10°C° 0 mm 5 mps 701 mmHg 73%
    20:00 +10°C° 0 mm 4 mps 701 mmHg 81%
    21:00 +9°C° 0 mm 3 mps 701 mmHg 82%
    22:00 +9°C° 0 mm 3 mps 701 mmHg 83%
    23:00 +9°C° 0 mm 3 mps 701 mmHg 84%

    Tomorrow, 25 March, Monday

    Time Temperature Precipitation Wind Pressure Humidity
    00:00 +8°C° 0 mm 2 mps 701 mmHg 84%
    01:00 +8°C° 0 mm 2 mps 701 mmHg 85%
    02:00 +8°C° 0 mm 2 mps 701 mmHg 85%
    03:00 +8°C° 0.1 mm 2 mps 701 mmHg 86%
    04:00 +7°C° 0.1 mm 2 mps 701 mmHg 87%
    05:00 +7°C° 0.1 mm 2 mps 700 mmHg 88%
    06:00 +8°C° 0.3 mm 1 mps 701 mmHg 85%
    07:00 +9°C° 0.3 mm 1 mps 701 mmHg 83%
    08:00 +9°C° 0.3 mm 1 mps 702 mmHg 81%
    09:00 +9°C° 0 mm 2 mps 702 mmHg 75%
    10:00 +11°C° 0 mm 3 mps 702 mmHg 68%
    11:00 +12°C° 0 mm 4 mps 703 mmHg 62%
    12:00 +12°C° 0.3 mm 5 mps 703 mmHg 63%
    13:00 +11°C° 0.3 mm 6 mps 703 mmHg 65%
    14:00 +11°C° 0.3 mm 7 mps 703 mmHg 66%
    15:00 +11°C° 0.3 mm 7 mps 703 mmHg 67%
    16:00 +10°C° 0.3 mm 7 mps 703 mmHg 68%
    17:00 +10°C° 0.3 mm 8 mps 704 mmHg 69%
    18:00 +9°C° 0 mm 6 mps 704 mmHg 71%
    19:00 +8°C° 0 mm 5 mps 705 mmHg 74%
    20:00 +7°C° 0 mm 4 mps 705 mmHg 76%
    21:00 +7°C° 0 mm 4 mps 705 mmHg 75%
    22:00 +7°C° 0 mm 3 mps 706 mmHg 75%
    23:00 +7°C° 0 mm 3 mps 706 mmHg 74%

    Day after tomorrow, 26 March, Tuesday

    Time Temperature Precipitation Wind Pressure Humidity
    00:00 +7°C° 0 mm 3 mps 706 mmHg 74%
    01:00 +6°C° 0 mm 2 mps 707 mmHg 74%
    02:00 +6°C° 0 mm 2 mps 707 mmHg 75%
    03:00 +6°C° 0 mm 2 mps 707 mmHg 77%
    04:00 +6°C° 0 mm 2 mps 707 mmHg 78%
    05:00 +6°C° 0 mm 2 mps 707 mmHg 80%
    06:00 +7°C° 0 mm 2 mps 708 mmHg 76%
    07:00 +8°C° 0 mm 3 mps 709 mmHg 71%
    08:00 +10°C° 0 mm 3 mps 709 mmHg 67%
    09:00 +11°C° 0 mm 4 mps 709 mmHg 62%
    10:00 +12°C° 0 mm 5 mps 710 mmHg 58%
    11:00 +14°C° 0 mm 5 mps 710 mmHg 53%
    12:00 +14°C° 0 mm 6 mps 710 mmHg 52%
    13:00 +14°C° 0 mm 6 mps 709 mmHg 51%
    14:00 +15°C° 0 mm 6 mps 709 mmHg 50%
    15:00 +14°C° 0 mm 6 mps 709 mmHg 54%
    16:00 +13°C° 0 mm 6 mps 709 mmHg 57%
    17:00 +12°C° 0 mm 5 mps 709 mmHg 61%
    18:00 +11°C° 0 mm 4 mps 710 mmHg 66%
    19:00 +10°C° 0 mm 3 mps 710 mmHg 71%
    20:00 +9°C° 0 mm 2 mps 710 mmHg 76%
    21:00 +9°C° 0 mm 1 mps 710 mmHg 77%
    22:00 +9°C° 0 mm 1 mps 710 mmHg 78%
    23:00 +9°C° 0 mm 1 mps 710 mmHg 80%

    27 March, Wednesday

    Time Temperature Precipitation Wind Pressure Humidity
    00:00 +8°C° 0 mm 1 mps 710 mmHg 80%
    01:00 +8°C° 0 mm 1 mps 710 mmHg 79%
    02:00 +8°C° 0 mm 1 mps 710 mmHg 79%
    03:00 +8°C° 0 mm 1 mps 710 mmHg 79%
    04:00 +8°C° 0 mm 1 mps 710 mmHg 79%
    05:00 +8°C° 0 mm 1 mps 710 mmHg 79%
    06:00 +9°C° 0 mm 1 mps 711 mmHg 72%
    07:00 +11°C° 0 mm 1 mps 711 mmHg 66%
    08:00 +12°C° 0 mm 2 mps 712 mmHg 59%
    09:00 +12°C° 0 mm 3 mps 712 mmHg 56%
    10:00 +14°C° 0 mm 4 mps 713 mmHg 53%
    11:00 +15°C° 0 mm 5 mps 713 mmHg 49%
    12:00 +15°C° 0.2 mm 6 mps 713 mmHg 51%
    13:00 +15°C° 0.2 mm 7 mps 713 mmHg 53%
    14:00 +15°C° 0.2 mm 8 mps 712 mmHg 56%
    15:00 +14°C° 0.3 mm 7 mps 712 mmHg 61%
    16:00 +14°C° 0.3 mm 7 mps 712 mmHg 66%
    17:00 +13°C° 0.3 mm 6 mps 712 mmHg 71%
    18:00 +12°C° 0 mm 5 mps 713 mmHg 77%
    19:00 +11°C° 0 mm 3 mps 713 mmHg 83%
    20:00 +9°C° 0 mm 2 mps 713 mmHg 88%
    21:00 +10°C° 0 mm 1 mps 713 mmHg 89%
    22:00 +10°C° 0 mm 1 mps 713 mmHg 90%
    23:00 +9°C° 0 mm 1 mps 713 mmHg 91%

    28 March, Thursday

    Time Temperature Precipitation Wind Pressure Humidity
    00:00 +10°C° 0 mm 1 mps 713 mmHg 91%
    01:00 +10°C° 0 mm 1 mps 713 mmHg 91%
    02:00 +10°C° 0 mm 1 mps 713 mmHg 90%
    03:00 +9°C° 0 mm 1 mps 713 mmHg 91%
    04:00 +9°C° 0 mm 1 mps 713 mmHg 92%
    05:00 +8°C° 0 mm 0 mps 713 mmHg 93%
    06:00 +10°C° 0 mm 1 mps 713 mmHg 87%
    07:00 +12°C° 0 mm 1 mps 714 mmHg 80%
    08:00 +13°C° 0 mm 1 mps 714 mmHg 73%
    09:00 +14°C° 0 mm 2 mps 714 mmHg 66%
    10:00 +16°C° 0 mm 2 mps 714 mmHg 58%
    11:00 +17°C° 0 mm 3 mps 714 mmHg 50%
    12:00 +17°C° 0 mm 4 mps 714 mmHg 48%
    13:00 +18°C° 0 mm 4 mps 714 mmHg 46%
    14:00 +19°C° 0 mm 5 mps 713 mmHg 44%
    15:00 +17°C° 0 mm 5 mps 713 mmHg 51%
    16:00 +17°C° 0 mm 4 mps 713 mmHg 58%
    17:00 +15°C° 0 mm 4 mps 712 mmHg 64%
    18:00 +14°C° 0 mm 3 mps 712 mmHg 71%
    19:00 +13°C° 0 mm 2 mps 712 mmHg 78%
    20:00 +11°C° 0 mm 0 mps 712 mmHg 84%
    21:00 +11°C° 0 mm 0 mps 711 mmHg 83%
    22:00 +12°C° 0 mm 1 mps 711 mmHg 81%
    23:00 +12°C° 0 mm 1 mps 711 mmHg 80%

    29 March, Friday

    Time Temperature Precipitation Wind Pressure Humidity
    00:00 +11°C° 0 mm 0 mps 711 mmHg 80%
    01:00 +11°C° 0 mm 0 mps 710 mmHg 79%
    02:00 +11°C° 0 mm 0 mps 710 mmHg 79%
    03:00 +11°C° 0.1 mm 0 mps 710 mmHg 77%
    04:00 +12°C° 0.1 mm 1 mps 710 mmHg 76%
    05:00 +12°C° 0.1 mm 1 mps 710 mmHg 75%
    06:00 +13°C° 0.1 mm 2 mps 710 mmHg 71%
    07:00 +13°C° 0.1 mm 2 mps 710 mmHg 66%
    08:00 +13°C° 0.1 mm 3 mps 710 mmHg 62%
    09:00 +14°C° 0.5 mm 3 mps 709 mmHg 60%
    10:00 +14°C° 0.5 mm 3 mps 709 mmHg 58%
    11:00 +16°C° 0.5 mm 3 mps 708 mmHg 56%
    12:00 +18°C° 0.1 mm 3 mps 708 mmHg 49%
    13:00 +19°C° 0.1 mm 3 mps 707 mmHg 42%
    14:00 +21°C° 0.1 mm 3 mps 707 mmHg 35%
    15:00 +20°C° 0.2 mm 2 mps 706 mmHg 42%
    16:00 +18°C° 0.2 mm 2 mps 705 mmHg 49%
    17:00 +17°C° 0.2 mm 2 mps 705 mmHg 56%
    18:00 +17°C° 0 mm 2 mps 704 mmHg 57%
    19:00 +16°C° 0 mm 3 mps 704 mmHg 58%
    20:00 +14°C° 0 mm 3 mps 703 mmHg 58%
    21:00 +14°C° 0 mm 3 mps 703 mmHg 59%
    22:00 +13°C° 0 mm 3 mps 703 mmHg 59%
    23:00 +13°C° 0 mm 4 mps 703 mmHg 60%
    Show more